[[{"header":{"parameterUnit":"m.s-1","parameterCategory":2,"la1":30.2991,"la2":30.254,"lo1":-89.0895,"lo2":-89.0444,"dy":0.0017,"dx":0.0017,"nx":28,"ny":28,"refTime":"2026-02-12T03:00:00:Z","depth":"0","parameterNumber":2,"parameterNumberName":"U-component_of_CURRENTS"},"data":[0,0,0,0,0,0,0,0,0,0,0,0,0,0,0,0,0,0,0,0,0,0,0,0,0,0,0,0,0,0,0,0,0,0,0,0,0,0,0,0,0,0,0,0,0,0,0,0,0,0,0,0,0,0,0,0,0,0,0.34,0.34,0,0.3417,0.3417,0.3417,0.3399,0.3398,0.3398,0.3398,0.3367,0.3366,0.3366,0,0,0,0,0,0,0,0,0,0,0,0,0,0.336,0.336,0.3399,0.34,0.34,0.3417,0.3417,0.3417,0.3399,0.3398,0.3398,0.3397,0.3367,0.3367,0.3366,0,0,0,0,0,0,0,0,0,0,0,0,0,0.3374,0.336,0.3399,0.3396,0.3396,0.3417,0.3417,0.3417,0.3399,0.3398,0.3398,0.3397,0.3367,0.3367,0.3366,0.3375,0,0,0.3364,0.3364,0,0,0,0,0,0,0,0,0.3373,0.3375,0.3396,0.3396,0.3396,0.3408,0.3392,0.3401,0.3399,0.3395,0.3398,0.3397,0.3378,0.3377,0.3378,0.3374,0.3372,0.3364,0.3364,0.3363,0.3363,0,0,0,0,0,0,0,0.3372,0.3375,0.3403,0.3396,0.3397,0.3396,0.3397,0.3393,0.3387,0.3395,0.3395,0.3401,0.3378,0.3379,0.3377,0.3372,0.3364,0.3363,0.3363,0.3363,0.3416,0.3418,0,0,0,0,0,0,0.3377,0.3374,0.3403,0.3404,0.3386,0.3398,0.3399,0.3402,0.3388,0.3386,0.3402,0.34,0.338,0.3378,0.3376,0.3417,0.3363,0.3363,0.3362,0.3415,0.3417,0.3419,0,0,0,0,0,0,0.3376,0.3379,0.3402,0.3392,0.3395,0.3399,0.3403,0.3403,0.341,0.3394,0.3391,0.341,0.338,0.3377,0.3388,0.3414,0.3362,0.3362,0.3413,0.3415,0.3418,0.3479,0,0,0,0,0,0,0.3374,0.3378,0.3382,0.3392,0.3396,0.3425,0.3404,0.3404,0.3416,0.3414,0.34,0.3396,0.3379,0.339,0.3388,0.3412,0.3361,0.341,0.3414,0.3417,0.3474,0.3483,0.3491,0,0,0,0,0,0.3373,0.3382,0.3382,0.3385,0.3401,0.3427,0.3429,0.3427,0.3417,0.3429,0.3422,0.3397,0.341,0.339,0.3388,0.3413,0.3409,0.3413,0.3417,0.3471,0.3481,0.349,0,0,0,0,0,0,0.3362,0.3382,0.3381,0.3394,0.3414,0.3425,0.3436,0.3436,0.344,0.3436,0.3415,0.3412,0.3437,0.342,0.3399,0.3441,0.3407,0.3411,0.3449,0.3459,0.3467,0.349,0.3361,0,0,0,0,0,0.3364,0.3378,0.3397,0.3409,0.3421,0.343,0.344,0.3443,0.345,0.3451,0.3442,0.344,0.3452,0.345,0.3455,0.3471,0.3519,0.3489,0.3497,0.3504,0.3523,0.3616,0.3635,0.3432,0.3432,0.3432,0,0,0.3362,0.3376,0.3382,0.3408,0.3421,0.3447,0.3434,0.3457,0.3479,0.3447,0.3469,0.3469,0.3465,0.349,0.3499,0.3476,0.3595,0.3509,0.3515,0.353,0.3623,0.3643,0.366,0.3435,0.3434,0.3434,0,0,0.3371,0.3381,0.3398,0.3421,0.3451,0.3463,0.3474,0.3493,0.3503,0.3527,0.3518,0.3542,0.3539,0.3554,0.3559,0.3617,0.3641,0.3611,0.3661,0.3752,0.377,0.3786,0.391,0.3936,0.3608,0.3608,0.3608,0,0.3368,0.3391,0.3408,0.3436,0.3459,0.3474,0.3503,0.3522,0.3542,0.3566,0.3541,0.3593,0.3577,0.3637,0.3649,0.3636,0.3703,0.362,0.3764,0.3781,0.3796,0.3919,0.3947,0.3611,0.3611,0.3611,0.361,0,0.3392,0.3415,0.3431,0.3471,0.35,0.3529,0.3563,0.3592,0.3602,0.3626,0.3687,0.3685,0.3724,0.3716,0.3691,0.3792,0.3812,0.377,0.374,0.3821,0.3945,0.3974,0.3616,0.3615,0.3614,0.3613,0,0,0.3369,0.3434,0.3439,0.3475,0.3522,0.3557,0.3602,0.366,0.3727,0.3734,0.3825,0.3823,0.3843,0.3851,0.3841,0.3894,0.4054,0.3875,0.3878,0.4001,0.4298,0.4267,0.4295,0.4037,0.4041,0.4045,0.4354,0,0.3382,0.3443,0.3468,0.3535,0.3575,0.3614,0.3673,0.3731,0.3781,0.3877,0.3895,0.3978,0.3891,0.3939,0.3976,0.4047,0.4127,0.3977,0.4199,0.4207,0.417,0.4325,0.4131,0.4385,0.4382,0.4387,0.4391,0,0.339,0.3438,0.35,0.3599,0.3623,0.3666,0.3786,0.3842,0.3965,0.4017,0.4089,0.4129,0.4228,0.4142,0.4308,0.422,0.4271,0.4306,0.4318,0.4286,0.4228,0.4297,0.4437,0.4309,0.4435,0.4431,0.4428,0,0.3384,0.3461,0.3517,0.3546,0.3657,0.3701,0.3764,0.3881,0.3976,0.4131,0.4241,0.4332,0.4437,0.4491,0.4546,0.4456,0.4746,0.4635,0.4665,0.4666,0.4543,0.4523,0.4582,0.4774,0.4773,0.4772,0.4771,0,0.3393,0.3446,0.3523,0.3565,0.3674,0.3728,0.3867,0.3951,0.4107,0.4251,0.4325,0.4476,0.4528,0.4676,0.4674,0.4795,0.4865,0.4734,0.4755,0.4561,0.454,0.4452,0.4398,0.4784,0.4781,0.4779,0.4777,0,0.3407,0.3438,0.3534,0.3642,0.368,0.3769,0.3936,0.404,0.4187,0.4388,0.4457,0.4657,0.485,0.4918,0.5068,0.4995,0.4957,0.5103,0.4891,0.4878,0.4704,0.4662,0.4626,0.4488,0.5189,0.519,0.5191,0,0.3438,0.3479,0.3601,0.3658,0.3713,0.3838,0.3926,0.4072,0.4182,0.4489,0.4588,0.4858,0.5008,0.5254,0.5207,0.5277,0.5075,0.5118,0.4873,0.4728,0.4697,0.4481,0.4349,0.4766,0.4763,0.4761,0.476,0,0.3526,0.3556,0.3633,0.3734,0.382,0.3926,0.4047,0.4142,0.4321,0.4493,0.4725,0.4882,0.5127,0.5112,0.5216,0.52,0.4862,0.5076,0.4974,0.4434,0.4157,0.4021,0.4562,0.4741,0.4743,0.4744,0.4745,0.4746,0.361,0.3672,0.3741,0.3831,0.3907,0.3966,0.4015,0.4135,0.4291,0.4465,0.4691,0.4819,0.4932,0.5039,0.502,0.4829,0.4779,0.4621,0.4616,0.4436,0.4173,0.4699,0.4846,0.4849,0.4851,0.4852,0.4854,0,0.3697,0.3742,0.3831,0.3902,0.3922,0.3967,0.4057,0.4045,0.4139,0.4331,0.4485,0.4532,0.4582,0.462,0.4529,0.4355,0.4112,0.425,0.388,0.3795,0.4328,0.4173,0.4119,0.4119,0.4119,0.4119,0.412,0.412,0.3758,0.3824,0.3839,0.3875,0.3895,0.386,0.3863,0.385,0.3914,0.3933,0.3926,0.4008,0.418,0.4301,0.4143,0.4033,0.3697,0.3565,0.3563,0.3922,0.3952,0.3981,0.382,0.3693,0.3692,0.2805,0.2799,0.2795]},{"header":{"parameterUnit":"m.s-1","parameterCategory":2,"la1":30.2991,"la2":30.254,"lo1":-89.0895,"lo2":-89.0444,"dy":0.0017,"dx":0.0017,"nx":28,"ny":28,"refTime":"2026-02-12T03:00:00:Z","depth":"0","parameterNumber":3,"parameterNumberName":"V-component_of_CURRENTS"},"data":[0,0,0,0,0,0,0,0,0,0,0,0,0,0,0,0,0,0,0,0,0,0,0,0,0,0,0,0,0,0,0,0,0,0,0,0,0,0,0,0,0,0,0,0,0,0,0,0,0,0,0,0,0,0,0,0,0,0,0.0104,0.0103,0,0.0035,0.0034,0.0033,-0.002,-0.002,-0.002,-0.0021,-0.0108,-0.011,-0.0112,0,0,0,0,0,0,0,0,0,0,0,0,0,0.0125,0.0125,0.0104,0.0103,0.0103,0.0035,0.0034,0.0032,-0.002,-0.002,-0.002,-0.0021,-0.0108,-0.011,-0.0113,0,0,0,0,0,0,0,0,0,0,0,0,0,0.009,0.0125,0.0104,0.007,0.0067,0.0035,0.0034,0.0032,-0.002,-0.002,-0.0021,-0.0021,-0.0107,-0.011,-0.0113,-0.0124,0,0,-0.0123,-0.0124,0,0,0,0,0,0,0,0,0.0092,0.0089,0.0076,0.0072,0.0068,0.0018,0.0009,-0.002,-0.002,0.0011,-0.0021,-0.0021,-0.0066,-0.0073,-0.0088,-0.0128,-0.0132,-0.0123,-0.0125,-0.0126,-0.0127,0,0,0,0,0,0,0,0.0095,0.0091,0.0074,0.0075,0.0071,0.0036,0.0031,0.0003,-0.0027,0.0008,0.0004,0.0001,-0.0069,-0.0085,-0.009,-0.0133,-0.0123,-0.0125,-0.0127,-0.0129,-0.0181,-0.0181,0,0,0,0,0,0,0.0112,0.0094,0.0076,0.0072,0.0082,0.0036,0.003,0.0032,-0.0026,-0.0035,0.0001,-0.0002,-0.0079,-0.0087,-0.0094,-0.0089,-0.0126,-0.0129,-0.0131,-0.0182,-0.0181,-0.018,0,0,0,0,0,0,0.0113,0.0111,0.0079,0.0083,0.0077,0.0037,0.0039,0.0031,0.002,-0.0031,-0.004,-0.0001,-0.008,-0.0089,-0.011,-0.0093,-0.013,-0.0133,-0.0182,-0.0181,-0.0181,-0.0093,0,0,0,0,0,0,0.0114,0.0112,0.0117,0.0085,0.0077,0.0075,0.004,0.003,0.0019,0.0015,-0.0036,-0.0045,-0.0081,-0.0105,-0.0113,-0.0098,-0.0136,-0.0183,-0.0182,-0.0181,-0.0096,-0.0089,-0.0083,0,0,0,0,0,0.0115,0.0132,0.0118,0.0116,0.0087,0.0076,0.0069,0.0037,0.002,0.0023,-0.0014,-0.0043,-0.0105,-0.0107,-0.0116,-0.0102,-0.0183,-0.0182,-0.0181,-0.0099,-0.0091,-0.0083,0,0,0,0,0,0,0.0144,0.0127,0.0112,0.0122,0.0105,0.0068,0.0067,0.0045,0.0018,0.0014,-0.0037,-0.0048,-0.0062,-0.0094,-0.0095,-0.0116,-0.0149,-0.015,-0.0084,-0.0076,-0.0069,-0.0044,-0.0138,0,0,0,0,0,0.0154,0.0161,0.0137,0.0145,0.014,0.0104,0.0094,0.0076,0.0048,0.0036,0.0,-0.0037,-0.0066,-0.0079,-0.0111,-0.012,-0.0142,-0.0118,-0.0111,-0.0105,-0.0092,-0.0121,-0.0115,-0.0177,-0.0177,-0.0177,0,0,0.0165,0.0158,0.0161,0.0151,0.0132,0.0142,0.0097,0.0093,0.0099,0.0031,0.0027,-0.0016,-0.0064,-0.0075,-0.0084,-0.0098,-0.0096,-0.0104,-0.0098,-0.0088,-0.0119,-0.0113,-0.0107,-0.0176,-0.0176,-0.0176,0,0,0.0202,0.0189,0.021,0.0203,0.0189,0.0171,0.0176,0.0147,0.0132,0.012,0.0073,0.0045,0.0,-0.0027,-0.0048,-0.0023,-0.0062,-0.0037,0.0021,-0.0007,-0.0002,0.0002,0.0,0.0003,-0.0031,-0.003,-0.003,0,0.0217,0.0241,0.0213,0.0233,0.0239,0.0193,0.0221,0.02,0.0167,0.0164,0.0131,0.0069,0.0025,0.0017,0.0022,-0.0006,-0.0022,-0.0003,0.0003,0.0007,0.001,0.0006,0.0008,-0.0026,-0.0027,-0.0027,-0.0027,0,0.0271,0.0289,0.0302,0.0314,0.0316,0.0331,0.0307,0.0301,0.0273,0.0251,0.023,0.0163,0.013,0.0108,0.007,0.0072,0.0056,0.0014,-0.0012,0.0022,0.0015,0.0016,-0.002,-0.0021,-0.0023,-0.0024,0,0,0.0311,0.0337,0.0342,0.0367,0.0363,0.0375,0.0385,0.0388,0.0407,0.035,0.0369,0.0297,0.0256,0.023,0.0175,0.0146,0.015,0.0097,0.0093,0.0105,0.0111,0.0114,0.0115,0.0108,0.0108,0.0108,0.0105,0,0.0363,0.0427,0.0422,0.0481,0.0514,0.0484,0.0502,0.0494,0.0477,0.0481,0.0405,0.0392,0.0305,0.0291,0.0249,0.0185,0.0154,0.0156,0.0067,0.0066,0.0072,0.0116,0.0115,0.0114,0.0106,0.0106,0.0106,0,0.0419,0.0459,0.0528,0.0576,0.0587,0.0608,0.064,0.0654,0.0639,0.0623,0.0589,0.0529,0.0489,0.0398,0.0304,0.0311,0.0219,0.0154,0.0151,0.0125,0.0071,0.0073,0.0115,-0.01,0.0107,0.0107,0.0107,0,0.0472,0.0534,0.0597,0.0612,0.0651,0.0673,0.0693,0.0696,0.0733,0.0719,0.0747,0.0663,0.0647,0.0519,0.039,0.0343,0.0295,0.0208,0.0122,0.0122,0.009,0.0087,-0.0078,0.0125,0.0125,0.0125,0.0125,0,0.0534,0.0584,0.0626,0.066,0.074,0.0739,0.0819,0.0819,0.0852,0.093,0.083,0.0881,0.0673,0.0618,0.0459,0.0332,0.0347,0.0153,0.0124,0.0122,0.0122,-0.0093,-0.0223,0.0125,0.0125,0.0125,0.0125,0,0.0583,0.0606,0.0684,0.0742,0.0767,0.0824,0.0912,0.0971,0.0988,0.1092,0.1095,0.1056,0.0999,0.081,0.0633,0.0448,0.0182,0.0242,0.0273,0.0246,-0.0069,-0.0193,-0.0381,-0.048,0.0133,0.0133,0.0133,0,0.0614,0.0658,0.0751,0.0805,0.0833,0.0921,0.0986,0.103,0.111,0.1225,0.1289,0.1264,0.1306,0.1069,0.0735,0.0475,0.0234,0.0249,0.0134,-0.0065,-0.0226,-0.0329,-0.0407,0.0131,0.0131,0.0131,0.0131,0,0.0675,0.0701,0.0767,0.0879,0.0958,0.1066,0.1167,0.1255,0.1338,0.1463,0.1622,0.1677,0.1466,0.1221,0.0832,0.0613,0.0082,0.024,0.0012,-0.0247,-0.035,-0.0464,0.0125,0.0132,0.0132,0.0132,0.0132,0.0132,0.0714,0.0767,0.0845,0.0956,0.1058,0.1186,0.1297,0.1441,0.162,0.1854,0.1888,0.2071,0.1644,0.1138,0.0792,0.0116,0.0092,-0.0122,-0.0252,-0.0334,-0.045,0.0163,0.0143,0.0143,0.0143,0.0143,0.0143,0,0.0756,0.0813,0.0917,0.1043,0.1169,0.1212,0.1403,0.155,0.1803,0.2088,0.2286,0.2224,0.1688,0.1099,0.0183,-0.0297,-0.0499,-0.0564,-0.074,-0.0796,-0.0265,-0.0286,-0.0373,-0.0373,-0.0373,-0.0373,-0.0372,-0.0372,0.0774,0.0861,0.0913,0.1104,0.121,0.1387,0.151,0.1761,0.2007,0.2385,0.2571,0.2677,0.2192,0.0558,-0.0528,-0.0769,-0.114,-0.1213,-0.1377,-0.1055,-0.1025,-0.0997,-0.1048,-0.1294,-0.1295,-0.1859,-0.1865,-0.187]}],[{"header":{"parameterUnit":"m.s-1","parameterCategory":2,"la1":30.2991,"la2":30.254,"lo1":-89.0895,"lo2":-89.0444,"dy":0.0017,"dx":0.0017,"nx":28,"ny":28,"refTime":"2026-02-12T03:00:00:Z","depth":"2","parameterNumber":2,"parameterNumberName":"U-component_of_CURRENTS"},"data":[0,0,0,0,0,0,0,0,0,0,0,0,0,0,0,0,0,0,0,0,0,0,0,0,0,0,0,0,0,0,0,0,0,0,0,0,0,0,0,0,0,0,0,0,0,0,0,0,0,0,0,0,0,0,0,0,0,0,0.2805,0.2806,0,0.2837,0.2837,0.2837,0.2837,0.2837,0.2837,0.2837,0.2846,0.2847,0.2847,0,0,0,0,0,0,0,0,0,0,0,0,0,0.2757,0.2757,0.2805,0.2806,0.2807,0.2837,0.2837,0.2838,0.2837,0.2837,0.2837,0.2836,0.2846,0.2846,0.2847,0,0,0,0,0,0,0,0,0,0,0,0,0,0.2779,0.2757,0.2805,0.2812,0.2813,0.2837,0.2837,0.2838,0.2837,0.2837,0.2837,0.2836,0.2846,0.2846,0.2847,0.2856,0,0,0.2849,0.2849,0,0,0,0,0,0,0,0,0.2778,0.2781,0.2811,0.2812,0.2813,0.2835,0.2824,0.2844,0.2837,0.2825,0.2837,0.2836,0.2842,0.2843,0.2846,0.2857,0.2857,0.2849,0.2849,0.285,0.285,0,0,0,0,0,0,0,0.2776,0.278,0.2815,0.2811,0.2813,0.2818,0.2821,0.2828,0.2832,0.2826,0.2827,0.2835,0.2843,0.2846,0.2846,0.2857,0.2849,0.285,0.285,0.285,0.2928,0.293,0,0,0,0,0,0,0.2778,0.2778,0.2814,0.2816,0.2798,0.2819,0.2822,0.2826,0.2833,0.2835,0.2835,0.2835,0.2845,0.2846,0.2847,0.29,0.285,0.285,0.2851,0.2926,0.2928,0.293,0,0,0,0,0,0,0.2777,0.2781,0.2813,0.28,0.2805,0.2821,0.2825,0.2827,0.2841,0.284,0.2841,0.2849,0.2845,0.2846,0.2871,0.2899,0.2851,0.2851,0.2924,0.2927,0.2929,0.2979,0,0,0,0,0,0,0.2775,0.278,0.2786,0.28,0.2806,0.2838,0.2826,0.2828,0.2847,0.2848,0.2853,0.2852,0.2844,0.287,0.2871,0.2899,0.2852,0.2922,0.2926,0.2929,0.2975,0.2983,0.299,0,0,0,0,0,0.2773,0.2783,0.2786,0.2791,0.2813,0.2839,0.2843,0.2851,0.2849,0.2861,0.2868,0.2853,0.2891,0.2872,0.2873,0.2901,0.2921,0.2925,0.2928,0.2972,0.2982,0.299,0,0,0,0,0,0,0.2763,0.2784,0.2788,0.2803,0.2826,0.284,0.2855,0.286,0.2876,0.2878,0.2871,0.2872,0.2908,0.29,0.2878,0.2935,0.2905,0.2909,0.2938,0.2947,0.2954,0.2966,0.2852,0,0,0,0,0,0.2765,0.2779,0.2801,0.2815,0.2828,0.2844,0.2857,0.2866,0.2881,0.2887,0.2892,0.2903,0.2924,0.293,0.2944,0.297,0.2991,0.2992,0.2999,0.3005,0.3017,0.3074,0.3087,0.2943,0.2943,0.2943,0,0,0.2764,0.278,0.2787,0.2815,0.2831,0.2856,0.2851,0.2879,0.2902,0.2886,0.2919,0.293,0.2938,0.2972,0.2987,0.2968,0.3061,0.301,0.3015,0.3024,0.3079,0.3093,0.3106,0.2945,0.2945,0.2944,0,0,0.2772,0.2787,0.2802,0.2826,0.2859,0.2873,0.2886,0.2911,0.2928,0.296,0.2963,0.2994,0.3011,0.303,0.304,0.3096,0.3101,0.3099,0.314,0.3194,0.3207,0.3218,0.3277,0.3293,0.3098,0.3098,0.3098,0,0.2771,0.2792,0.2812,0.2838,0.286,0.2884,0.2909,0.2934,0.2965,0.2987,0.2978,0.304,0.3042,0.3097,0.3117,0.3113,0.3146,0.3102,0.3204,0.3215,0.3225,0.3284,0.3301,0.3101,0.31,0.31,0.31,0,0.279,0.2813,0.2828,0.2866,0.2895,0.2923,0.2961,0.2993,0.3013,0.3037,0.3099,0.3115,0.3151,0.316,0.3154,0.3233,0.3234,0.3209,0.318,0.3243,0.3301,0.3318,0.3105,0.3104,0.3103,0.3102,0,0,0.2767,0.2827,0.2832,0.2854,0.2912,0.2934,0.2989,0.3041,0.309,0.312,0.3182,0.322,0.3236,0.325,0.3257,0.3301,0.3403,0.3289,0.329,0.3345,0.3539,0.3492,0.3505,0.3395,0.3398,0.3401,0.3555,0,0.2774,0.2817,0.2851,0.2897,0.2923,0.2972,0.3024,0.3079,0.3133,0.3201,0.3236,0.33,0.3269,0.3305,0.3343,0.3398,0.3448,0.3365,0.3472,0.3476,0.3423,0.3523,0.3236,0.3344,0.3571,0.3574,0.3576,0,0.2774,0.2806,0.2848,0.2917,0.2934,0.297,0.3063,0.3117,0.322,0.3271,0.3339,0.3375,0.346,0.342,0.3541,0.3491,0.3523,0.3552,0.3558,0.3508,0.346,0.3316,0.3366,0.3603,0.3601,0.3599,0.3597,0,0.2736,0.2801,0.2832,0.2855,0.2939,0.2973,0.3026,0.3132,0.3198,0.3332,0.3397,0.3488,0.3557,0.3609,0.3663,0.3619,0.3794,0.3736,0.3724,0.3722,0.3495,0.3467,0.3823,0.3823,0.3822,0.3822,0.3821,0,0.2723,0.2746,0.2816,0.2833,0.2887,0.2957,0.3039,0.3119,0.3247,0.3339,0.3429,0.352,0.361,0.3703,0.3724,0.3793,0.3846,0.3766,0.3768,0.3506,0.3479,0.3704,0.3688,0.3828,0.3826,0.3825,0.3824,0,0.2676,0.2718,0.2755,0.2838,0.2869,0.2908,0.3033,0.3102,0.3235,0.3364,0.3413,0.3581,0.3717,0.3793,0.3916,0.3882,0.3945,0.3947,0.3643,0.3606,0.3821,0.3806,0.3962,0.3962,0.3962,0.3961,0.3961,0,0.2655,0.2671,0.2747,0.2774,0.2811,0.2885,0.2947,0.3083,0.3159,0.3389,0.3439,0.3633,0.3732,0.3905,0.3911,0.3969,0.3996,0.3716,0.357,0.3854,0.3841,0.3826,0.3812,0.3297,0.3292,0.3287,0.3284,0,0.2624,0.2649,0.2679,0.2737,0.2788,0.2836,0.2925,0.2975,0.3147,0.3256,0.341,0.3521,0.3719,0.3662,0.3758,0.3736,0.3682,0.3628,0.4021,0.3305,0.3239,0.3222,0.3227,0.3243,0.3247,0.325,0.3252,0.3254,0.2592,0.2593,0.2638,0.2677,0.273,0.2746,0.2755,0.2849,0.2928,0.3049,0.3252,0.3326,0.3429,0.3432,0.3356,0.3302,0.3545,0.3367,0.3376,0.339,0.3285,0.3221,0.3204,0.3207,0.3211,0.3213,0.3216,0,0.2534,0.2543,0.2583,0.2592,0.2595,0.2673,0.2709,0.2672,0.2693,0.2862,0.2965,0.2821,0.2836,0.2924,0.2794,0.2819,0.2733,0.2692,0.2539,0.2585,0.2625,0.2472,0.218,0.2176,0.2172,0.2169,0,0,0.2497,0.2474,0.2475,0.2434,0.2468,0.2406,0.2396,0.2373,0.2414,0.2407,0.2453,0.272,0.2864,0.2476,0.2449,0.2282,0.2397,0.2197,0.3043,0.2912,0.2945,0.3054,0.2879,0,0,0,0,0]},{"header":{"parameterUnit":"m.s-1","parameterCategory":2,"la1":30.2991,"la2":30.254,"lo1":-89.0895,"lo2":-89.0444,"dy":0.0017,"dx":0.0017,"nx":28,"ny":28,"refTime":"2026-02-12T03:00:00:Z","depth":"2","parameterNumber":3,"parameterNumberName":"V-component_of_CURRENTS"},"data":[0,0,0,0,0,0,0,0,0,0,0,0,0,0,0,0,0,0,0,0,0,0,0,0,0,0,0,0,0,0,0,0,0,0,0,0,0,0,0,0,0,0,0,0,0,0,0,0,0,0,0,0,0,0,0,0,0,0,0.0147,0.0147,0,0.0087,0.0086,0.0085,0.0042,0.0042,0.0042,0.0042,-0.0034,-0.0035,-0.0037,0,0,0,0,0,0,0,0,0,0,0,0,0,0.0168,0.0168,0.0147,0.0147,0.0146,0.0087,0.0086,0.0085,0.0042,0.0042,0.0042,0.0042,-0.0033,-0.0035,-0.0037,0,0,0,0,0,0,0,0,0,0,0,0,0,0.0137,0.0168,0.0147,0.0119,0.0116,0.0087,0.0086,0.0085,0.0042,0.0042,0.0042,0.0042,-0.0032,-0.0035,-0.0038,-0.0049,0,0,-0.0046,-0.0047,0,0,0,0,0,0,0,0,0.0139,0.0136,0.0124,0.0121,0.0118,0.0073,0.0066,0.004,0.0043,0.0069,0.0042,0.0042,0.0002,-0.0004,-0.0017,-0.0053,-0.0056,-0.0046,-0.0048,-0.0049,-0.005,0,0,0,0,0,0,0,0.0141,0.0138,0.0122,0.0123,0.0119,0.0089,0.0085,0.006,0.0036,0.0066,0.0063,0.006,-0.0,-0.0014,-0.0019,-0.0057,-0.0046,-0.0049,-0.005,-0.0052,-0.0102,-0.0102,0,0,0,0,0,0,0.0155,0.0141,0.0124,0.012,0.013,0.009,0.0085,0.0086,0.0036,0.0029,0.006,0.0058,-0.0009,-0.0015,-0.0021,-0.002,-0.0049,-0.0052,-0.0053,-0.0102,-0.0102,-0.0101,0,0,0,0,0,0,0.0156,0.0155,0.0126,0.013,0.0124,0.009,0.0092,0.0085,0.0075,0.0032,0.0024,0.0057,-0.0009,-0.0018,-0.0036,-0.0024,-0.0053,-0.0056,-0.0103,-0.0102,-0.0102,-0.0029,0,0,0,0,0,0,0.0157,0.0156,0.016,0.0131,0.0125,0.012,0.0092,0.0084,0.0074,0.0071,0.0027,0.002,-0.001,-0.0032,-0.0039,-0.0028,-0.0058,-0.0103,-0.0102,-0.0102,-0.0032,-0.0026,-0.0021,0,0,0,0,0,0.0158,0.0172,0.0161,0.0158,0.0133,0.0121,0.0115,0.0088,0.0074,0.0076,0.0046,0.0021,-0.0033,-0.0034,-0.0042,-0.0032,-0.0103,-0.0102,-0.0102,-0.0034,-0.0027,-0.0021,0,0,0,0,0,0,0.0182,0.0168,0.0155,0.0163,0.0147,0.0114,0.0113,0.0095,0.0071,0.0068,0.0025,0.0016,0.0003,-0.0025,-0.0024,-0.0046,-0.0073,-0.0073,-0.0018,-0.0012,-0.0007,0.0014,-0.006,0,0,0,0,0,0.019,0.0197,0.0175,0.0181,0.0176,0.0145,0.0136,0.012,0.0096,0.0086,0.0055,0.0023,-0.0001,-0.0014,-0.0041,-0.0051,-0.0081,-0.0051,-0.0046,-0.0041,-0.0031,-0.0068,-0.0065,-0.0099,-0.0099,-0.0099,0,0,0.0199,0.0193,0.0196,0.0186,0.017,0.0177,0.0139,0.0134,0.0139,0.0082,0.0077,0.0041,-0.0,-0.0012,-0.002,-0.0033,-0.0048,-0.004,-0.0036,-0.0028,-0.0067,-0.0063,-0.006,-0.0099,-0.0099,-0.0099,0,0,0.0229,0.0218,0.0236,0.023,0.0217,0.0201,0.0205,0.0178,0.0165,0.0153,0.0115,0.0089,0.005,0.0026,0.0007,0.0025,-0.0019,0.0014,0.0059,0.0023,0.0026,0.0028,-0.0004,-0.0006,0.0018,0.0018,0.0018,0,0.0241,0.0262,0.0238,0.0255,0.026,0.0219,0.0243,0.0223,0.0194,0.019,0.0163,0.0107,0.0069,0.0058,0.0062,0.0039,0.0011,0.004,0.0031,0.0032,0.0033,-0.0,-0.0003,0.0021,0.0021,0.0021,0.002,0,0.0285,0.0301,0.0313,0.0324,0.0324,0.0337,0.0315,0.0308,0.0284,0.0263,0.0241,0.0182,0.0153,0.0132,0.0101,0.0093,0.0069,0.0042,0.0019,0.0041,0.0004,0.0,0.0027,0.0025,0.0024,0.0023,0,0,0.0318,0.0342,0.0346,0.037,0.0365,0.0375,0.0382,0.0381,0.0397,0.0343,0.0352,0.0292,0.0256,0.0232,0.0184,0.0148,0.0125,0.0104,0.0101,0.008,0.0048,0.002,0.0013,0.0095,0.0095,0.0095,0.0021,0,0.0361,0.0418,0.0413,0.0466,0.0496,0.047,0.0482,0.0474,0.0456,0.0451,0.0379,0.0366,0.0296,0.0285,0.0236,0.0158,0.0118,0.0148,0.0023,0.002,-0.0002,0.0008,0.0037,-0.0027,0.0017,0.0016,0.0016,0,0.0408,0.0445,0.0508,0.0551,0.0561,0.0579,0.0606,0.0617,0.0593,0.0578,0.0542,0.0484,0.0428,0.036,0.0233,0.0256,0.0162,0.0089,0.0084,0.0032,-0.0016,-0.0044,-0.0036,0.0008,0.0009,0.001,0.001,0,0.0455,0.0511,0.0569,0.0583,0.0619,0.0638,0.0656,0.0654,0.069,0.0665,0.0678,0.0587,0.0558,0.0424,0.0267,0.0252,0.0121,0.008,-0.0036,-0.004,-0.0052,-0.0056,-0.0013,-0.0013,-0.0012,-0.0012,-0.0012,0,0.051,0.0556,0.0596,0.0629,0.0703,0.0701,0.0776,0.0774,0.0798,0.0858,0.0752,0.077,0.0573,0.0469,0.0307,0.0131,0.0149,-0.0023,-0.0059,-0.0027,-0.0027,-0.0027,-0.0028,-0.0015,-0.0014,-0.0014,-0.0013,0,0.0556,0.0577,0.0651,0.0704,0.0729,0.0783,0.0872,0.0931,0.0928,0.1002,0.0999,0.0918,0.0783,0.057,0.0363,0.0201,0.0022,-0.0049,0.0003,-0.0025,-0.0127,-0.0123,-0.0185,-0.0186,-0.0188,-0.0189,-0.019,0,0.0586,0.0628,0.0715,0.0773,0.0803,0.0889,0.0958,0.0996,0.1076,0.1103,0.115,0.1037,0.0985,0.0657,0.0352,0.0058,0.002,-0.0113,-0.0145,-0.0115,-0.0144,-0.0138,-0.0133,-0.0134,-0.0135,-0.0135,-0.0135,0,0.065,0.0673,0.0741,0.0862,0.0946,0.1059,0.116,0.1243,0.1297,0.1346,0.1395,0.1349,0.1035,0.0744,0.0328,0.0131,-0.0068,-0.013,-0.0108,-0.0094,-0.0073,-0.01,-0.0095,-0.0138,-0.0138,-0.0138,-0.0137,-0.0137,0.0698,0.0757,0.0845,0.0963,0.1069,0.121,0.1318,0.143,0.1556,0.1637,0.1586,0.152,0.1171,0.0647,0.0286,-0.0095,-0.008,-0.0212,-0.0209,-0.0205,-0.0185,-0.0168,-0.0247,-0.0247,-0.0247,-0.0247,-0.0248,0,0.0764,0.0833,0.0945,0.1087,0.1217,0.1265,0.1446,0.1549,0.1703,0.1762,0.1789,0.1459,0.1116,0.0714,0.0145,-0.0194,-0.0212,-0.0294,-0.0244,-0.0238,-0.0234,-0.0214,-0.0284,-0.0285,-0.0286,-0.0287,0,0,0.0801,0.0914,0.0971,0.1184,0.1296,0.1477,0.1589,0.1726,0.1809,0.1862,0.1826,0.174,0.1243,0.0829,0.0362,0.0037,-0.0018,-0.0022,0.0044,0.0164,0.0172,-0.0152,-0.011,0,0,0,0,0]}],[{"header":{"parameterUnit":"m.s-1","parameterCategory":2,"la1":30.2991,"la2":30.254,"lo1":-89.0895,"lo2":-89.0444,"dy":0.0017,"dx":0.0017,"nx":28,"ny":28,"refTime":"2026-02-12T03:00:00:Z","depth":"4","parameterNumber":2,"parameterNumberName":"U-component_of_CURRENTS"},"data":[0,0,0,0,0,0,0,0,0,0,0,0,0,0,0,0,0,0,0,0,0,0,0,0,0,0,0,0,0,0,0,0,0,0,0,0,0,0,0,0,0,0,0,0,0,0,0,0,0,0,0,0,0,0,0,0,0,0,0.1862,0.1862,0,0.1934,0.1935,0.1935,0.1995,0.1996,0.1997,0.1998,0.2089,0.2091,0.2093,0,0,0,0,0,0,0,0,0,0,0,0,0,0.1776,0.1777,0.1861,0.1863,0.1864,0.1934,0.1935,0.1936,0.1995,0.1996,0.1997,0.1998,0.2089,0.2091,0.2093,0,0,0,0,0,0,0,0,0,0,0,0,0,0.1825,0.1777,0.1861,0.1903,0.1908,0.1934,0.1935,0.1936,0.1995,0.1996,0.1997,0.1999,0.2088,0.2091,0.2093,0.2084,0,0,0.2101,0.2102,0,0,0,0,0,0,0,0,0.1822,0.1828,0.1896,0.1901,0.1906,0.1959,0.1938,0.1987,0.1995,0.196,0.1998,0.1999,0.2048,0.2054,0.2061,0.2088,0.2092,0.2101,0.2103,0.2104,0.2104,0,0,0,0,0,0,0,0.1819,0.1825,0.1888,0.1897,0.1903,0.1919,0.1927,0.1948,0.1995,0.1963,0.1968,0.1979,0.2051,0.2059,0.2064,0.2093,0.2101,0.2103,0.2105,0.2106,0.2238,0.224,0,0,0,0,0,0,0.1812,0.1822,0.1886,0.189,0.1868,0.192,0.1929,0.1939,0.1994,0.2004,0.1978,0.1981,0.2054,0.2061,0.2068,0.2167,0.2104,0.2106,0.2107,0.2236,0.2238,0.224,0,0,0,0,0,0,0.181,0.1817,0.1883,0.1859,0.1869,0.192,0.1931,0.194,0.1988,0.2006,0.2016,0.2022,0.2055,0.2064,0.2125,0.2167,0.2107,0.2109,0.2233,0.2236,0.2239,0.2296,0,0,0,0,0,0,0.1807,0.1816,0.184,0.1859,0.187,0.1923,0.193,0.194,0.1992,0.1998,0.2046,0.2054,0.2057,0.2121,0.2127,0.2169,0.2111,0.2231,0.2235,0.2238,0.2292,0.2301,0.2308,0,0,0,0,0,0.1804,0.1825,0.1841,0.185,0.1895,0.1925,0.1933,0.1971,0.1993,0.2019,0.2058,0.2055,0.2149,0.2124,0.2131,0.2175,0.2229,0.2234,0.2238,0.2288,0.2299,0.2308,0,0,0,0,0,0,0.1802,0.1833,0.1851,0.1882,0.1915,0.1936,0.1971,0.1992,0.2042,0.2063,0.2077,0.2087,0.2156,0.2158,0.2131,0.2225,0.219,0.2196,0.2226,0.2236,0.2244,0.2244,0.2113,0,0,0,0,0,0.1811,0.1839,0.1866,0.1897,0.1917,0.1951,0.1977,0.2002,0.2039,0.2064,0.2097,0.2137,0.2172,0.22,0.2228,0.2277,0.2284,0.2311,0.232,0.2327,0.2333,0.2377,0.239,0.2255,0.2255,0.2255,0,0,0.182,0.1842,0.186,0.19,0.1931,0.1962,0.1971,0.2021,0.2058,0.2065,0.2141,0.2169,0.2193,0.2251,0.2282,0.2263,0.2372,0.2332,0.2338,0.2341,0.2383,0.2396,0.2408,0.2258,0.2257,0.2257,0,0,0.1837,0.1873,0.1899,0.1929,0.1981,0.2,0.2023,0.2069,0.2108,0.217,0.219,0.2245,0.2299,0.2325,0.2341,0.2413,0.2414,0.2431,0.2475,0.2518,0.2529,0.2539,0.2572,0.2584,0.2435,0.2435,0.2435,0,0.1851,0.1881,0.1913,0.1944,0.1977,0.202,0.2055,0.2095,0.2159,0.2194,0.2207,0.2308,0.2331,0.2397,0.2427,0.2432,0.2455,0.2432,0.2528,0.2538,0.2547,0.2578,0.2591,0.2439,0.2438,0.2438,0.2437,0,0.1872,0.1915,0.1936,0.1988,0.2027,0.2068,0.2118,0.2174,0.2226,0.226,0.2352,0.239,0.2447,0.2469,0.2472,0.2554,0.255,0.2532,0.2498,0.2564,0.2593,0.2605,0.2443,0.2442,0.2441,0.244,0,0,0.1854,0.1935,0.1947,0.1979,0.2056,0.2082,0.216,0.2226,0.2285,0.2354,0.2427,0.2498,0.2529,0.2551,0.2572,0.2615,0.2701,0.261,0.2611,0.2636,0.2803,0.2635,0.2632,0.2706,0.2708,0.271,0.2799,0,0.1865,0.1921,0.1965,0.2031,0.2063,0.2133,0.2196,0.2269,0.234,0.2423,0.2481,0.2562,0.2557,0.2607,0.2647,0.2694,0.2736,0.2679,0.2742,0.2744,0.258,0.2641,0.2717,0.2808,0.2811,0.2813,0.2814,0,0.1861,0.1902,0.1964,0.2051,0.2075,0.2128,0.2239,0.2303,0.242,0.2485,0.2571,0.2622,0.2715,0.2697,0.2801,0.2771,0.2796,0.2818,0.2822,0.2651,0.2598,0.2729,0.2836,0.2835,0.2833,0.2831,0.283,0,0.1808,0.1898,0.1948,0.1979,0.2085,0.2141,0.2208,0.2326,0.2393,0.2539,0.2605,0.2708,0.2782,0.2833,0.2886,0.2862,0.2985,0.2949,0.2818,0.2807,0.2906,0.2894,0.3015,0.3015,0.3015,0.3015,0.3015,0,0.1777,0.1822,0.1935,0.1959,0.2032,0.2122,0.2217,0.2307,0.244,0.2513,0.2637,0.2706,0.2825,0.29,0.2923,0.2908,0.3016,0.2835,0.282,0.2929,0.2919,0.2915,0.2902,0.3018,0.3017,0.3017,0.3016,0,0.1702,0.1779,0.1839,0.1961,0.2007,0.206,0.2209,0.2267,0.2419,0.2523,0.2578,0.2739,0.2836,0.2924,0.3022,0.294,0.2955,0.2922,0.3051,0.3041,0.274,0.2729,0.2774,0.2769,0.2764,0.2761,0.2757,0,0.1663,0.1689,0.182,0.1857,0.1919,0.2017,0.2078,0.2241,0.2303,0.2512,0.254,0.2704,0.2788,0.2792,0.2898,0.2933,0.2899,0.288,0.2785,0.2734,0.2717,0.2713,0.2708,0.2751,0.2749,0.2748,0.2747,0,0.1582,0.1646,0.1693,0.1768,0.1839,0.1903,0.2008,0.2042,0.222,0.2378,0.2451,0.2511,0.2615,0.2686,0.2741,0.2756,0.2874,0.2833,0.2841,0.2751,0.2707,0.2692,0.2693,0.2732,0.2734,0.2736,0.2736,0,0.1525,0.1533,0.1603,0.1653,0.1733,0.1757,0.1833,0.1907,0.1993,0.2224,0.2245,0.2422,0.2584,0.2597,0.2645,0.2652,0.2604,0.2504,0.2528,0.2546,0.2429,0.2336,0.2241,0,0,0,0,0,0.145,0.144,0.1478,0.1516,0.1587,0.1637,0.1764,0.1846,0.2024,0.2018,0.2127,0.2215,0.2295,0.2393,0.2356,0.2544,0.2612,0.2487,0.2507,0.2648,0.2665,0.2548,0,0,0,0,0,0,0.1397,0.1424,0.1428,0.1389,0.1395,0.1454,0.1533,0.1656,0.1669,0.1864,0.1927,0.2074,0.2193,0.2293,0.231,0.2339,0.2304,0.2605,0.26,0.2638,0.2654,0.2668,0.2553,0,0,0,0,0]},{"header":{"parameterUnit":"m.s-1","parameterCategory":2,"la1":30.2991,"la2":30.254,"lo1":-89.0895,"lo2":-89.0444,"dy":0.0017,"dx":0.0017,"nx":28,"ny":28,"refTime":"2026-02-12T03:00:00:Z","depth":"4","parameterNumber":3,"parameterNumberName":"V-component_of_CURRENTS"},"data":[0,0,0,0,0,0,0,0,0,0,0,0,0,0,0,0,0,0,0,0,0,0,0,0,0,0,0,0,0,0,0,0,0,0,0,0,0,0,0,0,0,0,0,0,0,0,0,0,0,0,0,0,0,0,0,0,0,0,0.0123,0.0122,0,0.0083,0.0083,0.0082,0.0056,0.0056,0.0056,0.0056,0.0,-0.0001,-0.0002,0,0,0,0,0,0,0,0,0,0,0,0,0,0.0135,0.0135,0.0123,0.0122,0.0122,0.0083,0.0083,0.0082,0.0056,0.0056,0.0056,0.0055,0.0001,-0.0001,-0.0002,0,0,0,0,0,0,0,0,0,0,0,0,0,0.0115,0.0135,0.0123,0.0105,0.0103,0.0083,0.0083,0.0082,0.0056,0.0056,0.0056,0.0055,0.0001,-0.0001,-0.0003,-0.0013,0,0,-0.0009,-0.001,0,0,0,0,0,0,0,0,0.0116,0.0115,0.0108,0.0106,0.0104,0.0075,0.0067,0.005,0.0056,0.0073,0.0055,0.0055,0.0025,0.0021,0.0012,-0.0016,-0.0018,-0.0009,-0.001,-0.0011,-0.0012,0,0,0,0,0,0,0,0.0118,0.0116,0.0106,0.0108,0.0105,0.0085,0.0083,0.0063,0.0049,0.0071,0.0069,0.0067,0.0023,0.0014,0.0011,-0.0019,-0.0009,-0.0011,-0.0012,-0.0013,-0.0054,-0.0054,0,0,0,0,0,0,0.0127,0.0118,0.0107,0.0105,0.0111,0.0085,0.0082,0.0084,0.0049,0.0044,0.0067,0.0066,0.0018,0.0013,0.0009,0.001,-0.0011,-0.0013,-0.0014,-0.0054,-0.0054,-0.0053,0,0,0,0,0,0,0.0128,0.0127,0.0109,0.0111,0.0107,0.0086,0.0087,0.0083,0.0078,0.0046,0.0041,0.0067,0.0018,0.0012,-0.0002,0.0007,-0.0014,-0.0016,-0.0054,-0.0054,-0.0054,0.0001,0,0,0,0,0,0,0.0128,0.0127,0.0132,0.0112,0.0108,0.0105,0.0087,0.0082,0.0077,0.0075,0.0044,0.0039,0.0017,0.0001,-0.0004,0.0003,-0.0018,-0.0054,-0.0054,-0.0054,-0.0001,0.0003,0.0007,0,0,0,0,0,0.0129,0.0139,0.0132,0.0131,0.0115,0.0105,0.0102,0.0084,0.0077,0.0078,0.0058,0.004,-0.0001,-0.0,-0.0007,0.0001,-0.0054,-0.0054,-0.0054,-0.0002,0.0003,0.0007,0,0,0,0,0,0,0.0145,0.0137,0.0129,0.0135,0.0124,0.0102,0.0102,0.009,0.0074,0.0074,0.0043,0.0036,0.0026,0.0005,0.0006,-0.0011,-0.0031,-0.0032,0.001,0.0015,0.0018,0.0035,-0.0019,0,0,0,0,0,0.0151,0.0157,0.0143,0.0147,0.0145,0.0124,0.0118,0.0108,0.0092,0.0085,0.0063,0.004,0.0022,0.0013,-0.0008,-0.0016,-0.0044,-0.0017,-0.0013,-0.0009,-0.0001,-0.0037,-0.0035,-0.0052,-0.0052,-0.0052,0,0,0.0158,0.0154,0.0157,0.0151,0.0141,0.0147,0.012,0.0118,0.0122,0.0081,0.008,0.0053,0.0022,0.0013,0.0007,-0.0002,-0.002,-0.0009,-0.0006,0.0001,-0.0036,-0.0034,-0.0033,-0.0052,-0.0052,-0.0052,0,0,0.0179,0.0173,0.0187,0.0183,0.0175,0.0165,0.0168,0.015,0.0142,0.0135,0.0107,0.0088,0.0059,0.004,0.0026,0.0038,0.0,0.003,0.0064,0.003,0.0031,0.0032,-0.0004,-0.0007,0.0033,0.0033,0.0033,0,0.0187,0.0204,0.0188,0.0201,0.0206,0.0179,0.0197,0.0184,0.0163,0.0162,0.0143,0.0101,0.0073,0.0063,0.0066,0.0048,0.0021,0.0051,0.0035,0.0036,0.0036,-0.0002,-0.0006,0.0035,0.0035,0.0035,0.0035,0,0.0218,0.0233,0.0241,0.0252,0.0254,0.0265,0.025,0.0247,0.0231,0.0217,0.02,0.0156,0.0134,0.0117,0.0096,0.0085,0.0063,0.0044,0.0027,0.0041,0.0,-0.0005,0.0039,0.0038,0.0038,0.0037,0,0,0.0238,0.0261,0.0265,0.0285,0.0286,0.0294,0.0301,0.0303,0.0315,0.0276,0.0282,0.0237,0.0211,0.0193,0.0156,0.0123,0.0095,0.009,0.0086,0.006,0.0017,-0.0003,-0.0011,0.0073,0.0073,0.0072,-0.0012,0,0.0269,0.0313,0.0313,0.0357,0.038,0.0365,0.0377,0.0373,0.0361,0.0357,0.0301,0.0292,0.024,0.0233,0.019,0.0122,0.0085,0.0119,0.0002,-0.0001,-0.0016,-0.0016,0.0071,-0.0016,-0.0017,-0.0018,-0.0019,0,0.03,0.033,0.0381,0.042,0.0429,0.0448,0.0473,0.0483,0.0465,0.0454,0.0425,0.0381,0.0331,0.0284,0.0168,0.0192,0.0114,0.0051,0.0046,0.0007,-0.003,-0.0034,-0.0028,-0.0028,-0.0027,-0.0026,-0.0026,0,0.0329,0.0378,0.0425,0.0438,0.0473,0.0494,0.0512,0.0514,0.0542,0.0522,0.0531,0.0454,0.0424,0.0314,0.018,0.0176,0.0044,0.0021,-0.0075,-0.0078,-0.0058,-0.0058,-0.0061,-0.0061,-0.0061,-0.0061,-0.0061,0,0.0363,0.0403,0.0446,0.0473,0.0538,0.0542,0.0606,0.0606,0.0626,0.0664,0.059,0.0587,0.0431,0.0334,0.0203,0.0049,0.0058,-0.0068,-0.0099,-0.0034,-0.0031,-0.0062,-0.0061,-0.0064,-0.0063,-0.0063,-0.0062,0,0.0389,0.0413,0.0475,0.0528,0.0554,0.0601,0.0683,0.0727,0.073,0.0775,0.0774,0.0691,0.0558,0.0389,0.0205,0.0089,-0.0062,-0.012,-0.0037,-0.0062,-0.0168,-0.0163,-0.0231,-0.0233,-0.0234,-0.0235,-0.0236,0,0.0405,0.0438,0.0523,0.0573,0.0604,0.0683,0.0741,0.0779,0.0832,0.0837,0.0857,0.0748,0.0665,0.0398,0.0207,-0.0051,-0.0092,-0.0172,-0.0174,-0.0161,-0.0184,-0.0178,-0.0172,-0.0238,-0.0238,-0.0238,-0.0239,0,0.0439,0.0467,0.0524,0.0628,0.0703,0.0797,0.0879,0.0927,0.0964,0.0966,0.0932,0.0787,0.0631,0.0406,0.0202,0.0016,-0.0121,-0.0185,-0.0184,-0.0187,-0.0169,-0.019,-0.0183,-0.0243,-0.0242,-0.0242,-0.0241,0,0.0468,0.0512,0.0588,0.0682,0.0782,0.0879,0.0923,0.0979,0.1027,0.102,0.1004,0.0828,0.0726,0.0441,0.0254,0.0064,0.0011,-0.0051,-0.0058,-0.0056,0.0011,0.0061,0.0034,0,0,0,0,0,0.0493,0.0548,0.0637,0.0741,0.0841,0.0904,0.1003,0.1037,0.1068,0.1057,0.1036,0.0887,0.0603,0.0482,0.029,0.0216,-0.0032,-0.0018,-0.0108,-0.0265,-0.026,-0.0214,0,0,0,0,0,0,0.0511,0.0594,0.0639,0.0774,0.0853,0.0972,0.1039,0.1063,0.1059,0.1051,0.0909,0.083,0.0559,0.0714,0.0284,0.0225,0.0138,-0.0151,-0.0156,-0.0268,-0.0263,-0.026,-0.021,0,0,0,0,0]}]]